﻿測定場所 (Monitoring sites),日付 (Measurement date),時間 (Measurement time),線量率 最大値 (max) μGy/h,線量率 最小値 (min) μGy/h,線量率 平均値 (average) μGy/h,
調布 (Chofu),2014-02-16,23:01～24:00,0.0259,0.0227,0.0245,
調布 (Chofu),2014-02-16,22:01～23:00,0.0261,0.0229,0.0242,
調布 (Chofu),2014-02-16,21:01～22:00,0.0257,0.0226,0.0242,
調布 (Chofu),2014-02-16,20:01～21:00,0.0255,0.0222,0.0237,
調布 (Chofu),2014-02-16,19:01～20:00,0.0257,0.0219,0.0238,
調布 (Chofu),2014-02-16,18:01～19:00,0.0253,0.0216,0.0237,
調布 (Chofu),2014-02-16,17:01～18:00,0.0249,0.0214,0.0235,
調布 (Chofu),2014-02-16,16:01～17:00,0.0249,0.0216,0.0232,
調布 (Chofu),2014-02-16,15:01～16:00,0.0246,0.0209,0.0228,
調布 (Chofu),2014-02-16,14:01～15:00,0.0240,0.0202,0.0224,
調布 (Chofu),2014-02-16,13:01～14:00,0.0239,0.0204,0.0218,
調布 (Chofu),2014-02-16,12:01～13:00,0.0232,0.0200,0.0212,
調布 (Chofu),2014-02-16,11:01～12:00,0.0231,0.0195,0.0210,
調布 (Chofu),2014-02-16,10:01～11:00,0.0223,0.0187,0.0207,
調布 (Chofu),2014-02-16,09:01～10:00,0.0218,0.0194,0.0206,
調布 (Chofu),2014-02-16,08:01～09:00,0.0223,0.0185,0.0204,
調布 (Chofu),2014-02-16,07:01～08:00,0.0216,0.0179,0.0201,
調布 (Chofu),2014-02-16,06:01～07:00,0.0222,0.0194,0.0204,
調布 (Chofu),2014-02-16,05:01～06:00,0.0218,0.0187,0.0203,
調布 (Chofu),2014-02-16,04:01～05:00,0.0219,0.0189,0.0202,
調布 (Chofu),2014-02-16,03:01～04:00,0.0231,0.0183,0.0200,
調布 (Chofu),2014-02-16,02:01～03:00,0.0211,0.0183,0.0197,
調布 (Chofu),2014-02-16,01:01～02:00,0.0216,0.0185,0.0199,
調布 (Chofu),2014-02-16,00:01～01:00,0.0218,0.0185,0.0198,
調布 (Chofu),2014-02-15,23:01～24:00,0.0217,0.0184,0.0199,
調布 (Chofu),2014-02-15,22:01～23:00,0.0218,0.0182,0.0197,
調布 (Chofu),2014-02-15,21:01～22:00,0.0215,0.0183,0.0198,
調布 (Chofu),2014-02-15,20:01～21:00,0.0208,0.0183,0.0194,
調布 (Chofu),2014-02-15,19:01～20:00,0.0215,0.0182,0.0195,
調布 (Chofu),2014-02-15,18:01～19:00,0.0220,0.0191,0.0205,
調布 (Chofu),2014-02-15,17:01～18:00,0.0225,0.0187,0.0208,
調布 (Chofu),2014-02-15,16:01～17:00,0.0208,0.0178,0.0189,
調布 (Chofu),2014-02-15,15:01～16:00,0.0199,0.0176,0.0185,
調布 (Chofu),2014-02-15,14:01～15:00,0.0195,0.0172,0.0181,
調布 (Chofu),2014-02-15,13:01～14:00,0.0196,0.0165,0.0180,
調布 (Chofu),2014-02-15,12:01～13:00,0.0190,0.0164,0.0177,
調布 (Chofu),2014-02-15,11:01～12:00,0.0214,0.0173,0.0190,
調布 (Chofu),2014-02-15,10:01～11:00,0.0270,0.0195,0.0233,
調布 (Chofu),2014-02-15,09:01～10:00,0.0317,0.0257,0.0289,
調布 (Chofu),2014-02-15,08:01～09:00,0.0320,0.0275,0.0295,
調布 (Chofu),2014-02-15,07:01～08:00,0.0303,0.0259,0.0279,
調布 (Chofu),2014-02-15,06:01～07:00,0.0316,0.0278,0.0293,
調布 (Chofu),2014-02-15,05:01～06:00,0.0324,0.0280,0.0305,
調布 (Chofu),2014-02-15,04:01～05:00,0.0328,0.0283,0.0304,
調布 (Chofu),2014-02-15,03:01～04:00,0.0340,0.0292,0.0314,
調布 (Chofu),2014-02-15,02:01～03:00,0.0366,0.0325,0.0345,
調布 (Chofu),2014-02-15,01:01～02:00,0.0368,0.0306,0.0333,
調布 (Chofu),2014-02-15,00:01～01:00,0.0348,0.0305,0.0323,
調布 (Chofu),2014-02-14,23:01～24:00,0.0355,0.0303,0.0327,
調布 (Chofu),2014-02-14,22:01～23:00,0.0379,0.0321,0.0342,
調布 (Chofu),2014-02-14,21:01～22:00,0.0390,0.0332,0.0352,
調布 (Chofu),2014-02-14,20:01～21:00,0.0390,0.0336,0.0362,
調布 (Chofu),2014-02-14,19:01～20:00,0.0406,0.0347,0.0370,
調布 (Chofu),2014-02-14,18:01～19:00,0.0400,0.0346,0.0369,
調布 (Chofu),2014-02-14,17:01～18:00,0.0423,0.0361,0.0386,
調布 (Chofu),2014-02-14,16:01～17:00,0.0429,0.0358,0.0388,
調布 (Chofu),2014-02-14,15:01～16:00,0.0422,0.0360,0.0385,
調布 (Chofu),2014-02-14,14:01～15:00,0.0400,0.0348,0.0368,
調布 (Chofu),2014-02-14,13:01～14:00,0.0414,0.0352,0.0374,
調布 (Chofu),2014-02-14,12:01～13:00,0.0414,0.0349,0.0367,
調布 (Chofu),2014-02-14,11:01～12:00,0.0385,0.0337,0.0359,
調布 (Chofu),2014-02-14,10:01～11:00,0.0389,0.0347,0.0363,
調布 (Chofu),2014-02-14,09:01～10:00,0.0412,0.0335,0.0357,
調布 (Chofu),2014-02-14,08:01～09:00,0.0386,0.0337,0.0357,
調布 (Chofu),2014-02-14,07:01～08:00,0.0389,0.0331,0.0357,
調布 (Chofu),2014-02-14,06:01～07:00,0.0367,0.0320,0.0346,
調布 (Chofu),2014-02-14,05:01～06:00,0.0352,0.0305,0.0331,
調布 (Chofu),2014-02-14,04:01～05:00,0.0337,0.0300,0.0316,
調布 (Chofu),2014-02-14,03:01～04:00,0.0334,0.0291,0.0313,
調布 (Chofu),2014-02-14,02:01～03:00,0.0334,0.0294,0.0313,
調布 (Chofu),2014-02-14,01:01～02:00,0.0335,0.0295,0.0314,
調布 (Chofu),2014-02-14,00:01～01:00,0.0339,0.0300,0.0313,
調布 (Chofu),2014-02-13,23:01～24:00,0.0331,0.0291,0.0312,
調布 (Chofu),2014-02-13,22:01～23:00,0.0333,0.0294,0.0312,
調布 (Chofu),2014-02-13,21:01～22:00,0.0329,0.0288,0.0310,
調布 (Chofu),2014-02-13,20:01～21:00,0.0329,0.0290,0.0310,
調布 (Chofu),2014-02-13,19:01～20:00,0.0334,0.0297,0.0313,
調布 (Chofu),2014-02-13,18:01～19:00,0.0327,0.0296,0.0311,
調布 (Chofu),2014-02-13,17:01～18:00,0.0334,0.0296,0.0311,
調布 (Chofu),2014-02-13,16:01～17:00,0.0327,0.0293,0.0311,
調布 (Chofu),2014-02-13,15:01～16:00,0.0328,0.0290,0.0311,
調布 (Chofu),2014-02-13,14:01～15:00,0.0325,0.0287,0.0307,
調布 (Chofu),2014-02-13,13:01～14:00,0.0333,0.0289,0.0309,
調布 (Chofu),2014-02-13,12:01～13:00,0.0335,0.0291,0.0307,
調布 (Chofu),2014-02-13,11:01～12:00,0.0322,0.0287,0.0304,
調布 (Chofu),2014-02-13,10:01～11:00,0.0332,0.0285,0.0306,
調布 (Chofu),2014-02-13,09:01～10:00,0.0350,0.0290,0.0313,
調布 (Chofu),2014-02-13,08:01～09:00,0.0350,0.0315,0.0330,
調布 (Chofu),2014-02-13,07:01～08:00,0.0355,0.0307,0.0331,
調布 (Chofu),2014-02-13,06:01～07:00,0.0350,0.0311,0.0330,
調布 (Chofu),2014-02-13,05:01～06:00,0.0346,0.0299,0.0327,
調布 (Chofu),2014-02-13,04:01～05:00,0.0344,0.0298,0.0324,
調布 (Chofu),2014-02-13,03:01～04:00,0.0346,0.0299,0.0322,
調布 (Chofu),2014-02-13,02:01～03:00,0.0334,0.0292,0.0314,
調布 (Chofu),2014-02-13,01:01～02:00,0.0336,0.0290,0.0308,
調布 (Chofu),2014-02-13,00:01～01:00,0.0324,0.0282,0.0304,
調布 (Chofu),2014-02-12,23:01～24:00,0.0320,0.0289,0.0303,
調布 (Chofu),2014-02-12,22:01～23:00,0.0328,0.0282,0.0302,
調布 (Chofu),2014-02-12,21:01～22:00,0.0313,0.0285,0.0300,
調布 (Chofu),2014-02-12,20:01～21:00,0.0319,0.0275,0.0303,
調布 (Chofu),2014-02-12,19:01～20:00,0.0337,0.0285,0.0302,
調布 (Chofu),2014-02-12,18:01～19:00,0.0322,0.0275,0.0302,
調布 (Chofu),2014-02-12,17:01～18:00,0.0316,0.0276,0.0301,
調布 (Chofu),2014-02-12,16:01～17:00,0.0313,0.0282,0.0295,
調布 (Chofu),2014-02-12,15:01～16:00,0.0327,0.0277,0.0297,
調布 (Chofu),2014-02-12,14:01～15:00,0.0318,0.0261,0.0293,
調布 (Chofu),2014-02-12,13:01～14:00,0.0315,0.0271,0.0291,
調布 (Chofu),2014-02-12,12:01～13:00,0.0313,0.0273,0.0291,
調布 (Chofu),2014-02-12,11:01～12:00,0.0306,0.0270,0.0287,
調布 (Chofu),2014-02-12,10:01～11:00,0.0307,0.0262,0.0283,
調布 (Chofu),2014-02-12,09:01～10:00,0.0306,0.0266,0.0283,
調布 (Chofu),2014-02-12,08:01～09:00,0.0304,0.0259,0.0282,
調布 (Chofu),2014-02-12,07:01～08:00,0.0304,0.0269,0.0285,
調布 (Chofu),2014-02-12,06:01～07:00,0.0301,0.0265,0.0282,
調布 (Chofu),2014-02-12,05:01～06:00,0.0301,0.0265,0.0281,
調布 (Chofu),2014-02-12,04:01～05:00,0.0308,0.0259,0.0283,
調布 (Chofu),2014-02-12,03:01～04:00,0.0299,0.0263,0.0281,
調布 (Chofu),2014-02-12,02:01～03:00,0.0303,0.0259,0.0275,
調布 (Chofu),2014-02-12,01:01～02:00,0.0295,0.0259,0.0277,
調布 (Chofu),2014-02-12,00:01～01:00,0.0294,0.0263,0.0278,
調布 (Chofu),2014-02-11,23:01～24:00,0.0293,0.0258,0.0278,
調布 (Chofu),2014-02-11,22:01～23:00,0.0288,0.0257,0.0274,
調布 (Chofu),2014-02-11,21:01～22:00,0.0291,0.0254,0.0275,
調布 (Chofu),2014-02-11,20:01～21:00,0.0298,0.0258,0.0276,
調布 (Chofu),2014-02-11,19:01～20:00,0.0293,0.0259,0.0275,
調布 (Chofu),2014-02-11,18:01～19:00,0.0299,0.0251,0.0273,
調布 (Chofu),2014-02-11,17:01～18:00,0.0296,0.0254,0.0272,
調布 (Chofu),2014-02-11,16:01～17:00,0.0306,0.0258,0.0275,
調布 (Chofu),2014-02-11,15:01～16:00,0.0295,0.0256,0.0274,
調布 (Chofu),2014-02-11,14:01～15:00,0.0290,0.0261,0.0274,
調布 (Chofu),2014-02-11,13:01～14:00,0.0293,0.0252,0.0274,
調布 (Chofu),2014-02-11,12:01～13:00,0.0292,0.0259,0.0273,
調布 (Chofu),2014-02-11,11:01～12:00,0.0289,0.0258,0.0272,
調布 (Chofu),2014-02-11,10:01～11:00,0.0294,0.0254,0.0271,
調布 (Chofu),2014-02-11,09:01～10:00,0.0289,0.0254,0.0270,
調布 (Chofu),2014-02-11,08:01～09:00,0.0285,0.0247,0.0269,
調布 (Chofu),2014-02-11,07:01～08:00,0.0299,0.0248,0.0269,
調布 (Chofu),2014-02-11,06:01～07:00,0.0290,0.0248,0.0268,
調布 (Chofu),2014-02-11,05:01～06:00,0.0286,0.0256,0.0268,
調布 (Chofu),2014-02-11,04:01～05:00,0.0289,0.0249,0.0268,
調布 (Chofu),2014-02-11,03:01～04:00,0.0289,0.0247,0.0268,
調布 (Chofu),2014-02-11,02:01～03:00,0.0289,0.0255,0.0270,
調布 (Chofu),2014-02-11,01:01～02:00,0.0282,0.0252,0.0268,
調布 (Chofu),2014-02-11,00:01～01:00,0.0297,0.0255,0.0269,
調布 (Chofu),2014-02-10,23:01～24:00,0.0295,0.0250,0.0267,
調布 (Chofu),2014-02-10,22:01～23:00,0.0283,0.0240,0.0268,
調布 (Chofu),2014-02-10,21:01～22:00,0.0286,0.0254,0.0267,
調布 (Chofu),2014-02-10,20:01～21:00,0.0290,0.0248,0.0268,
調布 (Chofu),2014-02-10,19:01～20:00,0.0288,0.0248,0.0265,
調布 (Chofu),2014-02-10,18:01～19:00,0.0280,0.0251,0.0264,
調布 (Chofu),2014-02-10,17:01～18:00,0.0283,0.0241,0.0261,
調布 (Chofu),2014-02-10,16:01～17:00,0.0283,0.0240,0.0262,
調布 (Chofu),2014-02-10,15:01～16:00,0.0277,0.0241,0.0258,
調布 (Chofu),2014-02-10,14:01～15:00,0.0277,0.0240,0.0254,
調布 (Chofu),2014-02-10,13:01～14:00,0.0268,0.0236,0.0255,
調布 (Chofu),2014-02-10,12:01～13:00,0.0268,0.0235,0.0253,
調布 (Chofu),2014-02-10,11:01～12:00,0.0266,0.0233,0.0251,
調布 (Chofu),2014-02-10,10:01～11:00,0.0264,0.0233,0.0250,
調布 (Chofu),2014-02-10,09:01～10:00,0.0271,0.0231,0.0249,
調布 (Chofu),2014-02-10,08:01～09:00,0.0266,0.0236,0.0250,
調布 (Chofu),2014-02-10,07:01～08:00,0.0269,0.0232,0.0251,
調布 (Chofu),2014-02-10,06:01～07:00,0.0269,0.0230,0.0248,
調布 (Chofu),2014-02-10,05:01～06:00,0.0268,0.0233,0.0247,
調布 (Chofu),2014-02-10,04:01～05:00,0.0270,0.0231,0.0248,
調布 (Chofu),2014-02-10,03:01～04:00,0.0260,0.0230,0.0247,
調布 (Chofu),2014-02-10,02:01～03:00,0.0263,0.0228,0.0246,
調布 (Chofu),2014-02-10,01:01～02:00,0.0263,0.0228,0.0246,
調布 (Chofu),2014-02-10,00:01～01:00,0.0275,0.0230,0.0244,
